Regional Weather Roundup
Issued by NWS

Home | Current Version | Previous Version | Text Only | Print | Product List | Glossary Off
Versions: 1 2 3 4 5 6 7 8 9 10 11 12 13 14 15 16 17 18 19 20 21 22 23 24 25 26 27 28 29 30 31 32 33 34 35 36 37 38 39 40 41 42 43 44 45 46 47 48 49 50

000
ASUS45 KABQ 221410
RWRNM
NEW MEXICO REGIONAL WEATHER ROUNDUP
NATIONAL WEATHER SERVICE ALBUQUERQUE NM
800 AM MDT WED MAR 22 2017

NOTE: "FAIR" MEANS FEW OR NO CLOUDS BELOW 12,000 FEET AGL WITH NO
       SIGNIFICANT WEATHER OR OBSTRUCTIONS TO VISION.

      THIS PRODUCT IS RELEASED AS TWO VERSIONS.  ONE VERSION NEAR
      THE TOP OF THE HOUR CONTAINING PRELIMINARY DATA FROM ALBUQUERQUE
      AND OTHER STATIONS.  A FINAL VERSION WITH ADDITIONAL DATA IS
      ISSUED ABOUT 10 MINUTES AFTER THE HOUR.

NMZ501-503-504-510>518-221500-
NORTHWEST PLATEAU/NORTHCENTRAL MOUNTAINS

CITY           SKY/WX    TMP DP  RH WIND       PRES   REMARKS
FARMINGTON     FAIR      45  30  55 E8        30.09R
LOS ALAMOS     FAIR      49  34  57 S6        30.23S
SANTA FE       FAIR      45  38  76 CALM      30.19R
TAOS             N/A     41  25  52 CALM      30.23R
ANGEL FIRE     FAIR      25  23  91 CALM      30.27S

$$
NMZ402-403-502-505>509-221500-
WESTCENTRAL MOUNTAINS/SOUTHWEST MOUNTAINS

CITY           SKY/WX    TMP DP  RH WIND       PRES   REMARKS
GALLUP         FAIR      37  23  56 CALM      30.15R
GRANTS         FAIR      32  19  59 NW3       30.20R
SILVER CITY    FAIR      48  26  43 N8        30.14R

$$
NMZ407-409-411-412-221500-
SOUTHERN DESERTS

CITY           SKY/WX    TMP DP  RH WIND       PRES   REMARKS
DEMING         FAIR      49  27  42 NW7       30.10R
LAS CRUCES     FAIR      56  20  24 W9        30.11R
HOLLOMAN AFB   FAIR      49  24  38 NE6       30.12R
ALAMOGORDO     FAIR      55  23  28 N5        30.09R
T OR C         FAIR      51  22  31 NW3       30.11R

$$
NMZ519>523-221500-
CENTRAL VALLEYS/CENTRAL HIGHLANDS

CITY           SKY/WX    TMP DP  RH WIND       PRES   REMARKS
ALBUQUERQUE    FAIR      52  33  48 N10       30.14S
DOUBLE EAGLE   CLEAR     45  34  65 NW5       30.17R
MORIARTY ARPT  FAIR      34  29  81 CALM      30.22R
CLINES CORNERS FAIR      39  37  92 E7        30.23S WCI  34
BELEN          FAIR      46  25  44 CALM      30.14S
SOCORRO        FAIR      47  25  42 NW6       30.12R

$$
NMZ524>526-539-540-221500-
SOUTHCENTRAL MOUNTAINS

CITY           SKY/WX    TMP DP  RH WIND       PRES   REMARKS
RUIDOSO        FAIR      48  32  53 SE8       30.24R

$$
NMZ527>531-221500-
NORTHEAST HIGHLANDS/NORTHEAST PLAINS

CITY           SKY/WX    TMP DP  RH WIND       PRES   REMARKS
LAS VEGAS      FAIR      40  37  89 S14       30.20S WCI  32
RATON          CLOUDY    42  38  85 W7        30.19R
CLAYTON        CLOUDY    40  40 100 S5        30.20S

$$
NMZ532>537-221500-
EASTCENTRAL PLAINS

CITY           SKY/WX    TMP DP  RH WIND       PRES   REMARKS
SANTA ROSA     PTSUNNY   43  38  84 CALM      30.18R
TUCUMCARI      CLOUDY    44  39  82 NE5       30.18R
CANNON AFB     CLOUDY    46  46 100 NE15      30.18R
CLOVIS AIRPORT CLOUDY    45  37  76 NE16      30.18S

$$
NMZ028-029-538-221500-
SOUTHEAST PLAINS

CITY           SKY/WX    TMP DP  RH WIND       PRES   REMARKS
ROSWELL        FAIR      54  44  69 N9        30.16R
ARTESIA        FAIR      54  43  66 NW12      30.13R
CARLSBAD       FAIR      56  45  66 NW10      30.09R
HOBBS          SUNNY     54  48  82 NE9       30.12R


$$



USA.gov is the U.S. government's official web portal to all federal, state and local government web resources and services.